Weather History for Frankfort, MI

Change the Weather History Date:

Saturday, August 23, 2014

  Actual Average (KTVC) Record (KTVC)
Temperature  
Mean Temperature 76 °F 67 °F  
Max Temperature 85 °F 77 °F 98 °F (1968)
Min Temperature 66 °F 56 °F 39 °F (1952)
Degree Days  
Heating Degree Days 0 1  
Month to date heating degree days 23  
Since 1 June heating degree days 163  
Since 1 July heating degree days 51  
Cooling Degree Days 10 3  
Month to date cooling degree days 93  
Year to date cooling degree days 346  
Since 1 June cooling degree days 326  
Growing Degree Days 26 (Base 50)    
Moisture  
Dew Point 63 °F    
Average Humidity 66    
Maximum Humidity 88    
Minimum Humidity 48    
Precipitation  
Precipitation 0.00 in 0.11 in 0.86 in (2011)
Month to date precipitation 2.51  
Year to date precipitation 20.24  
Sea Level Pressure  
Sea Level Pressure 30.03 in    
Wind  
Wind Speed 3 mph (SE)    
Max Wind Speed 9 mph    
Max Gust Speed -    
Visibility 10 miles    
Events      
T = Trace of Precipitation, MM = Missing Value Source: NWS Daily Summary

Daily Weather History Graph

Daily Weather History Graph

Search for Another Location

Airport:

Trip Planner

Search our weather history database for the weather conditions in past years. The results will help you decide how hot, cold, wet, or windy it might be!

Date:

Astronomy

Aug. 23, 2014 Rise Set
Actual Time 6:56 AM EDT 8:37 PM EDT
Civil Twilight 6:25 AM EDT 9:07 PM EDT
Nautical Twilight 5:48 AM EDT 9:45 PM EDT
Astronomical Twilight 5:07 AM EDT 10:25 PM EDT
Moon 5:10 AM EDT (8/23) 7:22 PM EDT (8/23)
Length of Visible Light 14h 42m
Length of Day
13h 40m
Waning Crescent, 3% of the Moon is Illuminated
Aug 23
Waning Crescent
Aug 25
New
Sep 2
First Quarter
Sep 8
Full
Sep 15
Last Quarter

Hourly Weather History & Observations

Time (EDT) Temp. Heat Index Dew Point Humidity Pressure Visibility Wind Dir Wind Speed Gust Speed Precip Events Conditions
12:12 AM 70.7 °F - 66.7 °F 87% 30.02 in 7.0 mi Calm Calm - N/A   Overcast
12:32 AM 70.0 °F - 66.2 °F 88% 30.02 in 7.0 mi Calm Calm - N/A   Mostly Cloudy
1:12 AM 70.3 °F - 66.6 °F 88% 30.02 in 7.0 mi Calm Calm - N/A   Overcast
1:33 AM 71.8 °F - 67.1 °F 85% 30.02 in 10.0 mi ESE 3.5 mph - N/A   Overcast
1:53 AM 71.6 °F - 66.6 °F 84% 30.03 in 10.0 mi SE 4.6 mph - N/A   Overcast
2:13 AM 72.5 °F - 65.8 °F 80% 30.02 in 10.0 mi SE 3.5 mph - N/A   Overcast
2:33 AM 72.1 °F - 65.7 °F 80% 30.02 in 10.0 mi ESE 4.6 mph - N/A   Overcast
2:53 AM 71.8 °F - 64.8 °F 78% 30.02 in 10.0 mi ESE 4.6 mph - N/A   Overcast
3:13 AM 71.8 °F - 64.4 °F 77% 30.02 in 10.0 mi SE 3.5 mph - N/A   Overcast
3:53 AM 69.8 °F - 63.5 °F 80% 30.02 in 10.0 mi Calm Calm - N/A   Overcast
4:13 AM 70.5 °F - 62.1 °F 74% 30.02 in 10.0 mi SE 4.6 mph - N/A   Scattered Clouds
4:34 AM 70.0 °F - 61.7 °F 75% 30.02 in 10.0 mi Calm Calm - N/A   Clear
4:54 AM 67.1 °F - 61.7 °F 83% 30.02 in 10.0 mi Calm Calm - N/A   Clear
5:14 AM 66.7 °F - 60.6 °F 81% 30.02 in 10.0 mi Calm Calm - N/A   Clear
5:34 AM 67.1 °F - 60.8 °F 80% 30.02 in 10.0 mi ESE 3.5 mph - N/A   Scattered Clouds
5:54 AM 69.8 °F - 60.8 °F 73% 30.02 in 10.0 mi Calm Calm - N/A   Scattered Clouds
6:14 AM 67.3 °F - 61.2 °F 81% 30.02 in 10.0 mi Calm Calm - N/A   Clear
6:34 AM 68.2 °F - 61.3 °F 79% 30.03 in 10.0 mi Calm Calm - N/A   Clear
7:14 AM 68.9 °F - 61.0 °F 76% 30.03 in 10.0 mi ESE 4.6 mph - N/A   Mostly Cloudy
7:35 AM 68.5 °F - 61.0 °F 77% 30.03 in 10.0 mi ESE 4.6 mph - N/A   Mostly Cloudy
7:55 AM 68.4 °F - 61.2 °F 78% 30.04 in 10.0 mi SE 3.5 mph - N/A   Scattered Clouds
8:15 AM 68.9 °F - 61.5 °F 77% 30.04 in 10.0 mi SE 3.5 mph - N/A   Scattered Clouds
8:35 AM 70.3 °F - 61.5 °F 74% 30.05 in 10.0 mi SE 3.5 mph - N/A   Scattered Clouds
8:55 AM 71.6 °F - 61.5 °F 70% 30.04 in 10.0 mi ESE 3.5 mph - N/A   Clear
9:15 AM 73.4 °F - 61.9 °F 67% 30.04 in 10.0 mi SE 5.8 mph - N/A   Clear
9:35 AM 74.5 °F - 61.2 °F 63% 30.04 in 10.0 mi SE 4.6 mph - N/A   Clear
9:55 AM 75.7 °F - 61.2 °F 60% 30.05 in 10.0 mi ESE 6.9 mph - N/A   Clear
10:16 AM 76.6 °F - 61.0 °F 58% 30.06 in 10.0 mi East 4.6 mph - N/A   Clear
10:36 AM 76.8 °F - 62.8 °F 62% 30.05 in 10.0 mi ESE 5.8 mph - N/A   Clear
10:56 AM 77.4 °F - 62.6 °F 60% 30.05 in 10.0 mi East 4.6 mph - N/A   Clear
11:16 AM 79.0 °F - 62.1 °F 56% 30.05 in 10.0 mi SE 8.1 mph - N/A   Clear
11:36 AM 80.6 °F 81.7 °F 62.1 °F 53% 30.05 in 10.0 mi ESE 5.8 mph - N/A   Clear
11:51 AM 81.1 °F 82.3 °F 62.4 °F 53% 30.05 in 10.0 mi East 6.9 mph - N/A   Clear
12:11 PM 81.7 °F 82.6 °F 62.1 °F 51% 30.05 in 10.0 mi SE 9.2 mph - N/A   Clear
12:31 PM 82.6 °F 83.2 °F 61.9 °F 49% 30.05 in 10.0 mi SE 5.8 mph - N/A   Clear
12:52 PM 82.6 °F 83.6 °F 62.6 °F 51% 30.05 in 10.0 mi SE 5.8 mph - N/A   Mostly Cloudy
1:05 PM 84.4 °F 85.2 °F 62.8 °F 48% 30.05 in 10.0 mi ESE 4.6 mph - N/A   Mostly Cloudy
1:29 PM - - - N/A% 30.05 in 10.0 mi West 6.9 mph - N/A   Scattered Clouds
1:39 PM - - - N/A% 30.05 in 10.0 mi West 9.2 mph - N/A   Scattered Clouds
2:17 PM 82.4 °F 83.4 °F 62.6 °F 51% 30.05 in 10.0 mi WSW 6.9 mph - N/A   Mostly Cloudy
2:38 PM 82.4 °F 83.4 °F 62.6 °F 51% 30.05 in 10.0 mi West 5.8 mph - N/A   Scattered Clouds
2:47 PM - - - N/A% 30.05 in 10.0 mi West 8.1 mph - N/A   Clear
2:52 PM 83.3 °F 84.4 °F 63.3 °F 51% 30.05 in 10.0 mi West 5.8 mph - N/A   Clear
3:06 PM - - - N/A% 30.04 in 10.0 mi West 5.8 mph - N/A   Clear
3:23 PM 83.8 °F 85.1 °F 63.7 °F 51% 30.03 in 10.0 mi WSW 5.8 mph - N/A   Clear
3:51 PM - - - N/A% 30.03 in 10.0 mi WNW 4.6 mph - N/A   Clear
4:11 PM 85.3 °F 86.6 °F 64.4 °F 49% 30.03 in 10.0 mi West 6.9 mph - N/A   Clear
4:31 PM 85.1 °F 86.4 °F 64.2 °F 49% 30.02 in 10.0 mi West 6.9 mph - N/A   Clear
4:52 PM - - - N/A% 30.02 in 10.0 mi WSW 5.8 mph - N/A   Clear
5:13 PM - - - N/A% 30.02 in 10.0 mi West 6.9 mph - N/A   Clear
5:33 PM - - - N/A% 30.01 in 10.0 mi WNW 4.6 mph - N/A   Clear
6:10 PM - - - N/A% 30.01 in 10.0 mi NW 3.5 mph - N/A   Clear
6:32 PM 83.3 °F 84.6 °F 63.9 °F 52% 30.00 in 10.0 mi Calm Calm - N/A   Scattered Clouds
6:53 PM 82.8 °F 84.3 °F 64.4 °F 54% 30.00 in 10.0 mi Calm Calm - N/A   Mostly Cloudy
7:14 PM 82.4 °F 84.2 °F 65.5 °F 56% 30.00 in 10.0 mi Calm Calm - N/A   Scattered Clouds
7:34 PM 81.0 °F 82.9 °F 65.3 °F 59% 30.00 in 10.0 mi ENE 4.6 mph - N/A   Mostly Cloudy
7:54 PM 80.6 °F 82.3 °F 64.6 °F 58% 30.00 in 10.0 mi East 4.6 mph - N/A   Mostly Cloudy
8:13 PM 80.2 °F 82.0 °F 64.6 °F 59% 30.01 in 10.0 mi Calm Calm - N/A   Mostly Cloudy
8:34 PM 79.7 °F - 64.6 °F 60% 30.02 in 10.0 mi ESE 3.5 mph - N/A   Overcast
8:55 PM 79.0 °F - 63.9 °F 60% 30.03 in 10.0 mi ESE 5.8 mph - N/A   Scattered Clouds
9:15 PM 78.8 °F - 63.0 °F 58% 30.04 in 10.0 mi ESE 5.8 mph - N/A   Clear
9:35 PM 77.5 °F - 63.1 °F 61% 30.05 in 10.0 mi East 4.6 mph - N/A   Clear
9:55 PM 77.0 °F - 62.8 °F 61% 30.05 in 10.0 mi ESE 3.5 mph - N/A   Clear
10:15 PM 76.1 °F - 62.6 °F 63% 30.05 in 10.0 mi East 3.5 mph - N/A   Clear
10:35 PM 75.6 °F - 62.6 °F 64% 30.06 in 10.0 mi ESE 4.6 mph - N/A   Clear
10:55 PM 74.7 °F - 62.2 °F 65% 30.06 in 10.0 mi ESE 4.6 mph - N/A   Clear
11:15 PM 73.9 °F - 62.6 °F 68% 30.06 in 10.0 mi East 4.6 mph - N/A   Clear
11:35 PM 73.4 °F - 62.6 °F 69% 30.06 in 10.0 mi ESE 6.9 mph - N/A   Clear
11:56 PM 73.0 °F - 62.6 °F 70% 30.07 in 10.0 mi ESE 5.8 mph - N/A   Clear